Home > Weather > Charlotte Amalie > Past weeks

Flag for US Virgin Islands Past Weather in Charlotte Amalie, US Virgin Islands — Yesterday and Last 2 Weeks

Now
87 °F

Sunny.


Feels Like: 102 °F
Forecast: N/A
Wind: 14 mph from Southeast

Location: Cyril E. King International Airport

Current Time: Aug 29, 2016 at 5:54:22 PM

Latest Report: Aug 29, 2016 at 4:53 PM


Visibility: 10 mi

Pressure: 29.96 "Hg

Humidity: 77%

Dew Point: 79 °F

Location of Charlotte AmalieLocation

Past Weather in Charlotte Amalie — Graph

°F

Charlotte Amalie Temperature Yesterday

Maximum temperature yesterday: 87 °F (at 11:53 AM)
Minimum temperature yesterday: 79 °F (at 1:53 AM)
Average temperature yesterday: 83 °F

High & Low Weather Summary for the Past Weeks

 TemperatureHumidityPressure
High91 °F (Aug 21, 10:53 AM)100% (Aug 24, 2:53 PM)30.06 "Hg (Aug 24, 2:53 PM)
Low79 °F (Aug 27, 11:53 PM)59% (Aug 16, 3:53 PM)29.83 "Hg (Aug 24, 1:17 PM)
Average84 °F80%29.96 "Hg
* Reported Aug 14 6:34 PM — Aug 29 3:53 PM, Charlotte Amalie, Weather by CustomWeather, © 2016

Note: Actual official high and low records may vary slightly from our data, if they occured in-between our weather recording intervals... More about our weather records

Advertising

Charlotte Amalie Weather History for the Previous 24 Hours

Scroll right to see more
 ConditionsComfort  
Time TempWeatherWind HumidityBarometerVisibility
3:53 PM
Mon, Aug 29
88 °FPassing clouds.14 mph73%29.97 "Hg10 mi
2:53 PM88 °FPassing clouds.14 mph75%29.97 "Hg10 mi
1:53 PM89 °FPassing clouds.15 mph72%29.99 "Hg10 mi
12:53 PM89 °FBroken clouds.14 mph75%30.01 "Hg10 mi
11:53 AM88 °FScattered clouds.13 mph78%30.02 "Hg10 mi
10:53 AM88 °FPassing clouds.16 mph75%30.03 "Hg10 mi
9:53 AM87 °FPassing clouds.16 mph77%30.03 "Hg10 mi
8:53 AM86 °FLight rain. Broken clouds.15 mph80%30.01 "Hg10 mi
7:53 AM85 °FScattered clouds.10 mph83%30.00 "Hg10 mi
6:53 AM82 °FScattered clouds.6 mph94%29.97 "Hg10 mi
5:53 AM82 °FPartly cloudy.8 mph94%29.95 "Hg10 mi
4:53 AM81 °FClear.7 mph97%29.94 "Hg10 mi
2:53 AM82 °FClear.6 mph91%29.96 "Hg10 mi
1:53 AM82 °FPassing clouds.6 mph88%29.97 "Hg10 mi
12:53 AM82 °FClear.6 mph79%29.98 "Hg10 mi
11:53 PM
Sun, Aug 28
82 °FClear.7 mph91%29.99 "Hg10 mi
10:53 PM82 °FPassing clouds.6 mph88%30.00 "Hg10 mi
9:53 PM83 °FPassing clouds.8 mph85%30.00 "Hg10 mi
7:53 PM83 °FClear.8 mph85%29.96 "Hg10 mi
6:53 PM83 °FPassing clouds.6 mph82%29.95 "Hg10 mi
5:53 PM84 °FSunny.6 mph80%29.94 "Hg10 mi
Weather by CustomWeather, © 2016

See weather overviewHow to use our weather pages